Retour au catalogue

SL-8 DEB

ActifLEO
NORAD 5301·DEBRIS·🇷🇺 Russia

Lancé Apr 23, 1971 depuis Plesetsk Cosmodrome

Loading…

Prochains Passages (prochaines 24 heures)

TLE

FraisSource: Space-Track

Époque: Sep 14, 2026, 10:29 UTC

1 05301U 71035D   26257.43746714  .00004381  00000-0  46027-3 0  9991
2 05301  74.0236  47.3170 0008735 192.0190 168.0785 14.89763458925220

Suivez SL-8 DEB en temps réel avec AllMySat

Download on the App Store